Regional Weather Roundup
Issued by NWS

Home | Current Version | Previous Version | Graphics & Text | Print | Product List | Glossary On
Versions: 1 2 3 4 5 6 7 8 9 10 11 12 13 14 15 16 17 18 19 20 21 22 23 24 25 26 27 28 29 30 31 32 33 34 35 36 37 38 39 40 41 42 43 44 45 46 47 48 49 50
000
ASUS43 KLSX 281707
RWRMO

WEATHER SUMMARY FOR MISSOURI
NATIONAL WEATHER SERVICE SPRINGFIELD MO
1100 AM CST FRI NOV 28 2014

NOTE: "FAIR" INDICATES FEW OR NO CLOUDS BELOW 12,000 FEET WITH NO
       SIGNIFICANT WEATHER AND/OR OBSTRUCTIONS TO VISIBILITY.
       CURRENT SKY AND/OR WEATHER CONDITIONS ARE NOT AVAILABLE FOR
       CHILLICOTHE AND FARMINGTON.

MOZ001>031-035>038-043-044-053-054-281800-
...NORTHERN AND WESTERN MISSOURI...

CITY           SKY/WX    TMP DP  RH WIND       PRES   REMARKS
KANSAS CTY INT PTSUNNY   48  29  47 SW18      29.92F
KANSAS C DTWN  SUNNY     51  29  42 SW10G21   29.94F
LEE`S SUMMIT   SUNNY     49  29  46 SW18G29   29.95F
ST JOSEPH      SUNNY     47  29  49 SW16      29.92F
CHILLICOTHE      N/A     44  30  57 S10       29.95F
KIRKSVILLE     SUNNY     41  29  62 S14       29.95F

$$
MOZ066>068-077>081-088>096-101>105-281800-
...SOUTHWEST MISSOURI...

CITY           SKY/WX    TMP DP  RH WIND       PRES   REMARKS
SPRINGFIELD    SUNNY     51  29  42 S22       30.06F
JOPLIN         SUNNY     56  30  37 S26G37    30.04F

$$
MOZ032>034-039>042-045>050-055>058-069>072-281800-
...CENTRAL MISSOURI...

CITY           SKY/WX    TMP DP  RH WIND       PRES   REMARKS
COLUMBIA       SUNNY     49  30  48 S21       30.02F
JEFFERSON CITY SUNNY     50  29  44 S15G24    30.05F
ROLLA          SUNNY     46  30  53 S18G30    30.06F
SEDALIA        SUNNY     51  30  44 SW20G29   30.00F
WHITEMAN AFB   SUNNY     51  30  45 SW23G30   29.97F
WARRENSBURG    SUNNY     50  30  46 S15G22    29.97F
OSAGE BEACH    SUNNY     52  30  43 S15       30.04F

$$
MOZ051-052-059>065-281800-
...EAST CENTRAL MISSOURI...

CITY           SKY/WX    TMP DP  RH WIND       PRES   REMARKS
ST LOUIS INTL  MOSUNNY   42  30  62 S17G23    30.13F
SPIRIT OF STL  SUNNY     45  31  58 S7        30.11F
ST CHARLES     SUNNY     39  31  72 SE12      30.12F

$$
MOZ072>076-082>087-097>100-106>115-281800-
...SOUTH CENTRAL AND SOUTHEAST MISSOURI...

CITY           SKY/WX    TMP DP  RH WIND       PRES   REMARKS
CAPE GIRARDEAU SUNNY     40  32  73 S16       30.30F
FARMINGTON     SUNNY     41  30  65 SE15G21   30.19F
POPLAR BLUFF   SUNNY     42  31  64 S15       30.28F
WEST PLAINS    SUNNY     45  30  55 S14G23    30.18F

$$



USA.gov is the U.S. government's official web portal to all federal, state and local government web resources and services.